Weather History for Rochester, NH

Change the Weather History Date:

Tuesday, November 6, 2012

  Actual Average (KSFM) Record (KSFM)
Temperature  
Mean Temperature 34 °F -  
Max Temperature 42 °F 48 °F 57 °F (1999)
Min Temperature 25 °F 29 °F 15 °F (2012)
Degree Days  
Heating Degree Days 32    
Moisture  
Dew Point 17 °F    
Average Humidity 56    
Maximum Humidity 78    
Minimum Humidity 33    
Precipitation  
Precipitation 0.00 in - - ()
Sea Level Pressure  
Sea Level Pressure 30.18 in    
Wind  
Wind Speed 3 mph (NW)    
Max Wind Speed 7 mph    
Max Gust Speed -    
Visibility 10 miles    
Events      
Averages and records for this station are not official NWS values.
T = Trace of Precipitation, MM = Missing Value Source: NWS Daily Summary

Daily Weather History Graph

Daily Weather History Graph

Search for Another Location

Airport:

Trip Planner

Search our weather history database for the weather conditions in past years. The results will help you decide how hot, cold, wet, or windy it might be!

Date:

Astronomy

Nov. 06, 2012 Rise Set
Actual Time 6:25 AM EST 4:28 PM EST
Civil Twilight 5:55 AM EST 4:58 PM EST
Nautical Twilight 5:21 AM EST 5:32 PM EST
Astronomical Twilight 4:48 AM EST 6:05 PM EST
Moon 11:06 PM EST (11/6) 12:14 PM EST (11/6)
Length of Visible Light 11h 02m
Length of Day
10h 02m
Waning Gibbous, 53% of the Moon is Illuminated
Nov 6
Waning Gibbous
Nov 6
Last Quarter
Nov 13
New
Nov 20
First Quarter
Nov 28
Full

Hourly Weather History & Observations

Time (EST) Temp. Windchill Dew Point Humidity Pressure Visibility Wind Dir Wind Speed Gust Speed Precip Events Conditions
12:51 AM 28.9 °F 25.2 °F 17.1 °F 61% 30.11 in 10.0 mi Variable 3.5 mph - N/A   Clear
1:51 AM 28.9 °F 25.2 °F 17.1 °F 61% 30.12 in 10.0 mi Variable 3.5 mph - N/A   Clear
2:51 AM 28.0 °F 24.2 °F 17.1 °F 63% 30.12 in 10.0 mi Variable 3.5 mph - N/A   Clear
3:51 AM 28.0 °F 24.2 °F 18.0 °F 66% 30.13 in 10.0 mi Variable 3.5 mph - N/A   Clear
4:51 AM 27.0 °F 21.6 °F 17.1 °F 66% 30.14 in 10.0 mi Variable 4.6 mph - N/A   Clear
6:51 AM 26.1 °F 21.9 °F 17.1 °F 69% 30.17 in 10.0 mi West 3.5 mph - N/A   Clear
7:51 AM 30.0 °F - 17.1 °F 59% 30.18 in 10.0 mi Calm Calm - N/A   Clear
8:51 AM 34.0 °F 28.0 °F 18.0 °F 52% 30.19 in 10.0 mi NW 6.9 mph - N/A   Clear
9:51 AM 35.1 °F - 18.0 °F 50% 30.20 in 10.0 mi Calm Calm - N/A   Clear
10:51 AM 37.0 °F - 17.1 °F 44% 30.21 in 10.0 mi Calm Calm - N/A   Clear
11:51 AM 39.0 °F 34.8 °F 16.0 °F 39% 30.18 in 10.0 mi WNW 5.8 mph - N/A   Clear
12:51 PM 39.0 °F - 12.9 °F 34% 30.18 in 10.0 mi Calm Calm - N/A   Clear
1:51 PM 42.1 °F 39.2 °F 15.1 °F 34% 30.17 in 10.0 mi NNW 4.6 mph - N/A   Clear
2:51 PM 41.0 °F 39.0 °F 14.0 °F 33% 30.18 in 10.0 mi NW 3.5 mph - N/A   Clear
3:51 PM 39.0 °F - 12.9 °F 34% 30.18 in 10.0 mi Calm Calm - N/A   Clear
5:51 PM 33.1 °F - 19.9 °F 59% 30.20 in 10.0 mi Calm Calm - N/A   Clear
6:51 PM 30.9 °F - 19.0 °F 61% 30.22 in 10.0 mi Calm Calm - N/A   Clear
7:51 PM 28.9 °F - 19.9 °F 69% 30.23 in 10.0 mi Calm Calm - N/A   Clear
8:51 PM 28.0 °F 22.8 °F 19.0 °F 69% 30.22 in 10.0 mi NW 4.6 mph - N/A   Clear
9:51 PM 25.0 °F 19.3 °F 19.0 °F 78% 30.23 in 10.0 mi NNW 4.6 mph - N/A   Clear
10:51 PM 26.1 °F 21.9 °F 18.0 °F 71% 30.21 in 10.0 mi North 3.5 mph - N/A   Clear
11:51 PM 27.0 °F 20.5 °F 17.1 °F 66% 30.20 in 10.0 mi North 5.8 mph - N/A   Clear